Regional Weather Roundup
Issued by NWS Newport/Morehead, NC

Current Version | Previous Version | Graphics & Text | Print | Product List | Glossary On
Versions: 1 2 3 4 5 6 7 8 9 10 11 12 13 14 15 16 17 18 19 20 21 22 23 24 25 26 27 28 29 30 31 32 33 34 35 36 37 38 39 40 41 42 43 44 45 46 47 48 49 50
000 ASUS42 KMHX 291413 RWRMHX WEATHER ROUNDUP FOR EASTERN NORTH CAROLINA NATIONAL WEATHER SERVICE NEWPORT/MOREHEAD CITY NC 1000 AM EDT MON MAY 29 2017 NOTE: "FAIR" INDICATES FEW OR NO CLOUDS BELOW 12,000 FEET WITH NO SIGNIFICANT WEATHER AND/OR OBSTRUCTIONS TO VISIBILITY NCZ015>017-031-032-045>047-102-103-291500- NORTH COAST CITY SKY/WX TMP DP RH WIND PRES REMARKS EDENTON SUNNY 81 69 67 NW5 29.91R ELIZABETH CITY SUNNY 78 71 79 W7 29.89R KITTY HAWK SUNNY 75 71 86 W6 29.88R MANTEO SUNNY 77 68 73 NW8 29.90R $$ NCZ045>047-081-094-103-104-291500- CENTRAL COAST CITY SKY/WX TMP DP RH WIND PRES REMARKS FRISCO SUNNY 80 70 71 W12 29.91R $$ NCZ095-097-098-100-101-291500- SOUTHERN COAST CITY SKY/WX TMP DP RH WIND PRES REMARKS BEAUFORT SUNNY 81 70 69 W6 29.92S CEDAR ISLAND NOT AVBL JACKSONVILLE SUNNY 80 70 71 W5 29.92S PINEY ISLAND SUNNY N/A N/A N/A W9 29.91S WILMINGTON SUNNY 80 69 69 VRB3 29.94S $$ NCZ011>013-027>030-043-044-078>080-089-090>093-098-291500- COASTAL PLAIN CITY SKY/WX TMP DP RH WIND PRES REMARKS AHOSKIE NOT AVBL CLINTON SUNNY 81 65 59 NW6 29.95S ELIZABETHTOWN SUNNY 80 67 65 NW6 29.95S GOLDSBORO SUNNY 81 65 58 W12 29.91F GREENVILLE SUNNY 81 64 57 W7 29.94S HAVELOCK SUNNY 82 64 54 VRB7 29.92F KENANSVILLE SUNNY 82 63 51 NW7 29.93F KINSTON SUNNY 81 64 57 CALM 29.93F NEW BERN SUNNY 82 68 62 NW6 29.93S RICHLANDS SUNNY 81 68 64 VRB5 29.94S ROCKY MOUNT SUNNY 80 65 59 W7 29.92S WASHINGTON SUNNY 81 66 60 W7 29.91F WHITEVILLE SUNNY 79 68 68 CALM 29.95R $$ AMZ130-135-150-152-154-156-158-170-250-252-270-ANZ085-086-088-633-658-670-291500- MARINE OBSERVATIONS STATION/POSITION TIME TEMP WIND PRES WAVE SWELL AIR SEA DIR/SP/G HT/PER HT/PER (UTC) (F) (DEG/KT/KT) (MB) (FT/S) (FT/S) CHESAPEAKE LIGHT NOT AVBL 64 E VA BEACH 1350 63 64 250/ 6/ 8 1011.8 4/ 7 3/ 7 DUCK 1348 74 68 260/ 8/ 10 1011.5 2 E DUCK 1400 69 N/A 2/ 7 OREGON INLET 1336 77 70 290/ 8/ 12 1011.8 13E OREGON INLT 1348 67 N/A 3/ 6 3/ 6 HATTERAS CG 1348 77 74 260/ 11/ 13 1012.5 DIAMOND BUOY 1350 75 77 270/ 10/ 12 1012.6 4/ 6 3/ 6 CAPE LOOKOUT 1400 78 280/ 7/ 7 1013.0 BEAUFORT LAB 1348 80 74 350/ 3/ 6 1012.5 30 SE NEW RVR IN 1308 75 76 300/ 8/ 10 1013.7 30 SE NEW RVR IN 1343 76 N/A 4/ 6 27 SE WRIGHTSVLE 1308 75 77 290/ 10/ 12 1013.1 5 SE WRIGHTSVLE 1308 76 75 290/ 6/ 8 1013.5 225 S CAPE HAT 1350 77 76 230/ 14/ 16 1015.8 4/ 5 2/ 8 41 SE CHARLESTON 1350 77 76 270/ 6/ 8 1014.8 3/ 5 3/ 5 $$

USA.gov is the U.S. government's official web portal to all federal, state and local government web resources and services.